Time,TemperatureF,DewpointF,PressureIn,WindDirection,WindDirectionDegrees,WindSpeedMPH,WindSpeedGustMPH,Humidity,HourlyPrecipIn,Conditions,Clouds,dailyrainin,SoftwareType,DateUTC
2013-07-19 00:09:00,56.2,52.0,29.96,South,188,2.0,-999.0,87,-99.99,,,0.00,weatherlink.com 1.10,2013-07-19 07:09:00,
2013-07-19 00:24:00,56.2,52.0,29.96,SSE,148,0.0,-999.0,87,-99.99,,,0.00,weatherlink.com 1.10,2013-07-19 07:24:00,
2013-07-19 00:39:00,56.0,52.0,29.96,South,190,1.0,-999.0,87,-99.99,,,0.00,weatherlink.com 1.10,2013-07-19 07:39:00,
2013-07-19 00:54:00,56.0,52.0,29.96,WSW,254,0.0,-999.0,87,-99.99,,,0.00,weatherlink.com 1.10,2013-07-19 07:54:00,
2013-07-19 01:09:00,55.9,52.0,29.96,SW,233,2.0,-999.0,87,-99.99,,,0.00,weatherlink.com 1.10,2013-07-19 08:09:00,
2013-07-19 01:24:00,55.7,52.0,29.95,SE,126,0.0,-999.0,88,-99.99,,,0.00,weatherlink.com 1.10,2013-07-19 08:24:00,
2013-07-19 01:39:00,55.6,52.0,29.95,SW,232,1.0,-999.0,88,-99.99,,,0.00,weatherlink.com 1.10,2013-07-19 08:39:00,
2013-07-19 01:54:00,55.4,52.0,29.95,WSW,252,0.0,-999.0,88,-99.99,,,0.00,weatherlink.com 1.10,2013-07-19 08:54:00,
2013-07-19 02:09:00,55.4,52.0,29.94,SW,226,0.0,-999.0,88,-99.99,,,0.00,weatherlink.com 1.10,2013-07-19 09:09:00,
2013-07-19 02:24:00,55.4,52.0,29.93,SW,228,0.0,-999.0,89,-99.99,,,0.00,weatherlink.com 1.10,2013-07-19 09:24:00,
2013-07-19 02:39:00,55.4,52.0,29.93,SSW,194,0.0,-999.0,89,-99.99,,,0.00,weatherlink.com 1.10,2013-07-19 09:39:00,
2013-07-19 02:54:00,55.6,52.0,29.93,SSW,193,0.0,-999.0,88,-99.99,,,0.00,weatherlink.com 1.10,2013-07-19 09:54:00,
2013-07-19 03:09:00,55.4,52.0,29.93,East,88,3.0,-999.0,88,-99.99,,,0.00,weatherlink.com 1.10,2013-07-19 10:09:00,
2013-07-19 03:24:00,55.4,52.0,29.92,SSE,161,1.0,-999.0,89,-99.99,,,0.00,weatherlink.com 1.10,2013-07-19 10:24:00,
2013-07-19 03:39:00,55.6,53.0,29.92,South,189,0.0,-999.0,89,-99.99,,,0.00,weatherlink.com 1.10,2013-07-19 10:39:00,
2013-07-19 03:54:00,55.6,52.0,29.92,SSE,166,0.0,-999.0,88,-99.99,,,0.00,weatherlink.com 1.10,2013-07-19 10:54:00,
2013-07-19 04:09:00,55.6,52.0,29.93,WSW,251,1.0,-999.0,88,-99.99,,,0.00,weatherlink.com 1.10,2013-07-19 11:09:00,
2013-07-19 04:24:00,55.6,52.0,29.93,SW,225,0.0,-999.0,88,-99.99,,,0.00,weatherlink.com 1.10,2013-07-19 11:24:00,
2013-07-19 04:39:00,55.4,52.0,29.93,ESE,106,0.0,-999.0,88,-99.99,,,0.00,weatherlink.com 1.10,2013-07-19 11:39:00,
2013-07-19 04:54:00,55.3,52.0,29.93,WSW,248,0.0,-999.0,88,-99.99,,,0.00,weatherlink.com 1.10,2013-07-19 11:54:00,
2013-07-19 05:09:00,55.4,52.0,29.92,SSE,166,1.0,-999.0,89,-99.99,,,0.00,weatherlink.com 1.10,2013-07-19 12:09:00,
2013-07-19 05:24:00,55.6,53.0,29.92,South,176,0.0,-999.0,89,-99.99,,,0.00,weatherlink.com 1.10,2013-07-19 12:24:00,
2013-07-19 05:39:00,55.7,53.0,29.92,South,184,0.0,-999.0,89,-99.99,,,0.00,weatherlink.com 1.10,2013-07-19 12:39:00,
2013-07-19 05:55:00,55.9,53.0,29.93,South,188,0.0,-999.0,89,-99.99,,,0.00,weatherlink.com 1.10,2013-07-19 12:55:00,
2013-07-19 06:10:00,56.0,53.0,29.93,South,171,0.0,-999.0,89,-99.99,,,0.00,weatherlink.com 1.10,2013-07-19 13:10:00,
2013-07-19 06:25:00,56.0,53.0,29.93,ESE,107,0.0,-999.0,89,-99.99,,,0.00,weatherlink.com 1.10,2013-07-19 13:25:00,
2013-07-19 06:40:00,56.2,53.0,29.93,SE,133,3.0,-999.0,89,-99.99,,,0.00,weatherlink.com 1.10,2013-07-19 13:40:00,
2013-07-19 06:55:00,56.5,53.0,29.93,South,177,0.0,-999.0,88,-99.99,,,0.00,weatherlink.com 1.10,2013-07-19 13:55:00,
2013-07-19 07:10:00,56.7,53.0,29.93,SSE,155,0.0,-999.0,88,-99.99,,,0.00,weatherlink.com 1.10,2013-07-19 14:10:00,
2013-07-19 07:25:00,56.9,53.0,29.93,SW,236,0.0,-999.0,87,-99.99,,,0.00,weatherlink.com 1.10,2013-07-19 14:25:00,
2013-07-19 07:40:00,57.0,53.0,29.93,WSW,238,0.0,-999.0,87,-99.99,,,0.00,weatherlink.com 1.10,2013-07-19 14:40:00,
2013-07-19 07:55:00,57.3,54.0,29.93,SW,216,0.0,-999.0,87,-99.99,,,0.00,weatherlink.com 1.10,2013-07-19 14:55:00,
2013-07-19 08:10:00,57.6,54.0,29.93,SSW,212,0.0,-999.0,86,-99.99,,,0.00,weatherlink.com 1.10,2013-07-19 15:10:00,
2013-07-19 08:25:00,58.1,53.0,29.93,South,180,0.0,-999.0,84,-99.99,,,0.00,weatherlink.com 1.10,2013-07-19 15:25:00,
2013-07-19 08:40:00,58.6,54.0,29.94,SSW,200,0.0,-999.0,83,-99.99,,,0.00,weatherlink.com 1.10,2013-07-19 15:40:00,
2013-07-19 08:55:00,58.9,53.0,29.94,SW,228,2.0,-999.0,82,-99.99,,,0.00,weatherlink.com 1.10,2013-07-19 15:55:00,
2013-07-19 09:10:00,59.6,53.0,29.94,SW,232,1.0,-999.0,80,-99.99,,,0.00,weatherlink.com 1.10,2013-07-19 16:10:00,
2013-07-19 09:25:00,60.7,54.0,29.94,ESE,119,0.0,-999.0,78,-99.99,,,0.00,weatherlink.com 1.10,2013-07-19 16:25:00,
2013-07-19 09:40:00,61.5,54.0,29.94,SW,225,0.0,-999.0,76,-99.99,,,0.00,weatherlink.com 1.10,2013-07-19 16:40:00,
2013-07-19 09:55:00,62.6,54.0,29.94,SSW,210,0.0,-999.0,73,-99.99,,,0.00,weatherlink.com 1.10,2013-07-19 16:55:00,
2013-07-19 10:10:00,64.0,54.0,29.94,South,177,0.0,-999.0,71,-99.99,,,0.00,weatherlink.com 1.10,2013-07-19 17:10:00,
2013-07-19 10:25:00,64.8,54.0,29.94,SW,215,0.0,-999.0,68,-99.99,,,0.00,weatherlink.com 1.10,2013-07-19 17:25:00,
2013-07-19 10:40:00,65.3,54.0,29.95,SW,229,0.0,-999.0,67,-99.99,,,0.00,weatherlink.com 1.10,2013-07-19 17:40:00,
2013-07-19 10:55:00,65.6,54.0,29.94,SE,138,0.0,-999.0,66,-99.99,,,0.00,weatherlink.com 1.10,2013-07-19 17:55:00,
2013-07-19 11:11:00,66.1,55.0,29.94,SW,223,0.0,-999.0,67,-99.99,,,0.00,weatherlink.com 1.10,2013-07-19 18:11:00,
2013-07-19 11:25:00,66.3,55.0,29.94,SW,219,0.0,-999.0,66,-99.99,,,0.00,weatherlink.com 1.10,2013-07-19 18:25:00,
2013-07-19 11:41:00,66.6,54.0,29.94,WSW,238,0.0,-999.0,65,-99.99,,,0.00,weatherlink.com 1.10,2013-07-19 18:41:00,
2013-07-19 11:56:00,67.1,56.0,29.94,WSW,256,2.0,-999.0,67,-99.99,,,0.00,weatherlink.com 1.10,2013-07-19 18:56:00,
2013-07-19 12:11:00,67.9,55.0,29.94,SSW,194,0.0,-999.0,64,-99.99,,,0.00,weatherlink.com 1.10,2013-07-19 19:11:00,
2013-07-19 12:26:00,67.4,55.0,29.93,West,263,1.0,-999.0,64,-99.99,,,0.00,weatherlink.com 1.10,2013-07-19 19:26:00,
2013-07-19 12:41:00,67.9,55.0,29.93,West,262,2.0,-999.0,63,-99.99,,,0.00,weatherlink.com 1.10,2013-07-19 19:41:00,
2013-07-19 12:56:00,68.1,55.0,29.93,NW,324,0.0,-999.0,64,-99.99,,,0.00,weatherlink.com 1.10,2013-07-19 19:56:00,
2013-07-19 13:11:00,69.1,56.0,29.93,WSW,251,1.0,-999.0,63,-99.99,,,0.00,weatherlink.com 1.10,2013-07-19 20:11:00,
2013-07-19 13:26:00,68.6,55.0,29.92,WSW,246,0.0,-999.0,63,-99.99,,,0.00,weatherlink.com 1.10,2013-07-19 20:26:00,
2013-07-19 13:41:00,68.4,56.0,29.91,SSE,156,1.0,-999.0,64,-99.99,,,0.00,weatherlink.com 1.10,2013-07-19 20:41:00,
2013-07-19 13:56:00,68.8,55.0,29.91,SSW,205,0.0,-999.0,62,-99.99,,,0.00,weatherlink.com 1.10,2013-07-19 20:56:00,
2013-07-19 14:11:00,68.3,55.0,29.90,SSW,197,0.0,-999.0,63,-99.99,,,0.00,weatherlink.com 1.10,2013-07-19 21:11:00,
2013-07-19 14:26:00,68.1,54.0,29.90,North,360,0.0,-999.0,62,-99.99,,,0.00,weatherlink.com 1.10,2013-07-19 21:26:00,
2013-07-19 14:41:00,68.6,55.0,29.90,SW,232,0.0,-999.0,62,-99.99,,,0.00,weatherlink.com 1.10,2013-07-19 21:41:00,
2013-07-19 15:11:00,69.3,55.0,29.90,WNW,297,0.0,-999.0,61,-99.99,,,0.00,weatherlink.com 1.10,2013-07-19 22:11:00,
2013-07-19 15:26:00,69.6,55.0,29.89,SSW,206,0.0,-999.0,61,-99.99,,,0.00,weatherlink.com 1.10,2013-07-19 22:26:00,
2013-07-19 15:41:00,69.3,55.0,29.89,WSW,240,0.0,-999.0,61,-99.99,,,0.00,weatherlink.com 1.10,2013-07-19 22:41:00,
2013-07-19 15:56:00,69.1,55.0,29.88,SSW,209,1.0,-999.0,61,-99.99,,,0.00,weatherlink.com 1.10,2013-07-19 22:56:00,
2013-07-19 16:11:00,69.4,56.0,29.88,West,279,0.0,-999.0,63,-99.99,,,0.00,weatherlink.com 1.10,2013-07-19 23:11:00,
2013-07-19 16:26:00,68.8,56.0,29.88,SW,217,0.0,-999.0,63,-99.99,,,0.00,weatherlink.com 1.10,2013-07-19 23:26:00,
2013-07-19 16:41:00,68.8,55.0,29.88,WSW,240,1.0,-999.0,62,-99.99,,,0.00,weatherlink.com 1.10,2013-07-19 23:41:00,
2013-07-19 16:56:00,67.4,55.0,29.88,WSW,249,0.0,-999.0,64,-99.99,,,0.00,weatherlink.com 1.10,2013-07-19 23:56:00,
2013-07-19 17:12:00,67.8,55.0,29.88,West,276,0.0,-999.0,63,-99.99,,,0.00,weatherlink.com 1.10,2013-07-20 00:12:00,
2013-07-19 17:27:00,67.6,54.0,29.88,SSW,195,0.0,-999.0,63,-99.99,,,0.00,weatherlink.com 1.10,2013-07-20 00:27:00,
2013-07-19 17:42:00,66.3,54.0,29.87,West,280,1.0,-999.0,65,-99.99,,,0.00,weatherlink.com 1.10,2013-07-20 00:42:00,
2013-07-19 17:57:00,65.2,55.0,29.87,South,176,0.0,-999.0,69,-99.99,,,0.00,weatherlink.com 1.10,2013-07-20 00:57:00,
2013-07-19 18:12:00,64.8,54.0,29.87,SW,225,0.0,-999.0,68,-99.99,,,0.00,weatherlink.com 1.10,2013-07-20 01:12:00,
2013-07-19 18:27:00,64.5,54.0,29.87,SSW,194,0.0,-999.0,68,-99.99,,,0.00,weatherlink.com 1.10,2013-07-20 01:27:00,
2013-07-19 18:43:00,61.3,53.0,29.86,WSW,241,2.0,-999.0,74,-99.99,,,0.00,weatherlink.com 1.10,2013-07-20 01:43:00,
2013-07-19 18:58:00,60.7,53.0,29.86,SW,229,1.0,-999.0,76,-99.99,,,0.00,weatherlink.com 1.10,2013-07-20 01:58:00,
2013-07-19 19:12:00,60.5,53.0,29.86,SE,134,0.0,-999.0,76,-99.99,,,0.00,weatherlink.com 1.10,2013-07-20 02:12:00,
2013-07-19 19:27:00,59.9,53.0,29.86,WSW,246,1.0,-999.0,77,-99.99,,,0.00,weatherlink.com 1.10,2013-07-20 02:27:00,
2013-07-19 19:42:00,59.0,53.0,29.86,SSE,149,0.0,-999.0,79,-99.99,,,0.00,weatherlink.com 1.10,2013-07-20 02:42:00,
2013-07-19 19:57:00,58.4,52.0,29.86,WSW,237,0.0,-999.0,80,-99.99,,,0.00,weatherlink.com 1.10,2013-07-20 02:57:00,
2013-07-19 20:12:00,58.0,53.0,29.86,SW,217,0.0,-999.0,82,-99.99,,,0.00,weatherlink.com 1.10,2013-07-20 03:12:00,
2013-07-19 20:27:00,57.6,52.0,29.86,SW,219,0.0,-999.0,82,-99.99,,,0.00,weatherlink.com 1.10,2013-07-20 03:27:00,
2013-07-19 20:42:00,57.5,53.0,29.86,SSE,162,0.0,-999.0,84,-99.99,,,0.00,weatherlink.com 1.10,2013-07-20 03:42:00,
2013-07-19 20:57:00,57.0,52.0,29.87,SSW,199,0.0,-999.0,84,-99.99,,,0.00,weatherlink.com 1.10,2013-07-20 03:57:00,
2013-07-19 21:13:00,57.0,53.0,29.87,SW,220,1.0,-999.0,85,-99.99,,,0.00,weatherlink.com 1.10,2013-07-20 04:13:00,
2013-07-19 21:28:00,56.7,52.0,29.88,SW,230,0.0,-999.0,85,-99.99,,,0.00,weatherlink.com 1.10,2013-07-20 04:28:00,
2013-07-19 21:43:00,56.5,52.0,29.88,SW,217,0.0,-999.0,86,-99.99,,,0.00,weatherlink.com 1.10,2013-07-20 04:43:00,
2013-07-19 21:58:00,56.5,53.0,29.88,SSE,159,5.0,-999.0,87,-99.99,,,0.00,weatherlink.com 1.10,2013-07-20 04:58:00,
2013-07-19 22:13:00,56.5,53.0,29.88,SSE,159,0.0,-999.0,87,-99.99,,,0.00,weatherlink.com 1.10,2013-07-20 05:13:00,
2013-07-19 22:28:00,56.3,53.0,29.88,SW,232,0.0,-999.0,87,-99.99,,,0.00,weatherlink.com 1.10,2013-07-20 05:28:00,
2013-07-19 22:43:00,56.3,53.0,29.88,SW,218,0.0,-999.0,87,-99.99,,,0.00,weatherlink.com 1.10,2013-07-20 05:43:00,
2013-07-19 22:58:00,56.5,53.0,29.88,South,178,0.0,-999.0,87,-99.99,,,0.00,weatherlink.com 1.10,2013-07-20 05:58:00,
2013-07-19 23:13:00,56.5,53.0,29.87,SW,229,0.0,-999.0,87,-99.99,,,0.00,weatherlink.com 1.10,2013-07-20 06:13:00,
2013-07-19 23:28:00,56.5,53.0,29.87,SSW,210,0.0,-999.0,87,-99.99,,,0.00,weatherlink.com 1.10,2013-07-20 06:28:00,
2013-07-19 23:43:00,56.3,52.0,29.87,SSW,207,0.0,-999.0,86,-99.99,,,0.00,weatherlink.com 1.10,2013-07-20 06:43:00,
2013-07-19 23:58:00,56.0,52.0,29.87,SE,146,0.0,-999.0,87,-99.99,,,0.00,weatherlink.com 1.10,2013-07-20 06:58:00,